period_start,C,m1,H,J0,J1,J2,J3,J4,J5,JA,JB,JC,JD,JJ,JK,JN,#
2015-07-29 00:03:08,-0.00,0.28,0.00,23.74,27.30,29.72,4.73,24.69,1020.53,2039.81,3270.98,3200.42,3465.00,349.30,347.20,13.27,0000 0000 0000 0000 000000
2015-07-29 00:08:09,0.01,0.28,0.00,23.74,27.30,29.72,4.74,24.48,1020.53,2039.83,3270.97,3200.23,3465.00,350.21,348.25,13.30,0000 0000 0000 0000 000000
2015-07-29 00:13:11,-0.02,0.28,0.00,23.75,27.30,29.72,4.71,24.47,1020.52,2039.81,3270.96,3200.17,3465.00,349.68,348.03,13.33,0000 0000 0000 0000 000000
2015-07-29 00:18:12,0.01,0.28,0.00,23.75,27.31,29.72,4.80,24.43,1020.52,2039.72,3270.77,3200.05,3464.99,350.12,348.33,13.36,0000 0000 0000 0000 000000
2015-07-29 00:23:13,0.01,0.28,0.00,23.75,27.31,29.72,4.76,24.43,1020.52,2039.74,3270.58,3200.06,3464.98,349.88,348.08,13.38,0000 0000 0000 0000 000000
2015-07-29 00:28:14,0.00,0.28,0.00,23.75,27.31,29.73,4.81,24.49,1020.52,2039.72,3270.31,3200.02,3464.97,350.34,348.35,13.41,0000 0000 0000 0000 000000
2015-07-29 00:33:16,0.00,0.28,0.00,23.75,27.32,29.74,4.77,24.45,1020.52,2039.80,3270.19,3200.04,3464.95,349.80,347.99,13.44,0000 0000 0000 0000 000000
2015-07-29 00:38:17,0.01,0.28,0.00,23.74,27.32,29.72,4.81,24.47,1020.52,2039.75,3270.02,3200.01,3464.95,350.05,348.17,13.47,0000 0000 0000 0000 000000
2015-07-29 00:43:18,0.01,0.29,0.00,23.75,27.32,29.72,4.72,24.41,1020.52,2039.77,3270.00,3200.00,3464.63,349.60,347.61,13.50,0000 0000 0000 0000 000000
2015-07-29 00:48:20,0.00,0.28,0.00,23.75,27.32,29.73,4.76,24.48,1020.52,2039.65,3269.99,3199.99,3464.15,349.84,348.05,13.53,0000 0000 0000 0000 000000
2015-07-29 00:53:20,-0.00,0.29,0.00,23.75,27.32,29.69,4.79,24.33,1020.52,2039.74,3269.97,3199.99,3464.10,350.13,348.42,13.56,0000 0000 0000 0000 000000
2015-07-29 00:58:21,0.02,0.28,0.00,23.77,27.32,29.72,4.76,24.36,1020.53,2039.68,3269.89,3199.99,3464.02,349.71,347.85,13.59,0000 0000 0000 0000 000000
2015-07-29 01:03:23,0.01,0.29,0.00,23.77,27.32,29.73,4.79,24.63,1020.54,2039.73,3269.56,3199.97,3464.01,350.11,348.21,13.62,0000 0000 0000 0000 000000
2015-07-29 01:08:24,0.02,0.29,0.00,23.77,27.32,29.72,4.79,24.42,1020.54,2039.88,3269.83,3199.97,3464.01,350.48,348.72,13.65,0000 0000 0000 0000 000000
2015-07-29 01:13:25,-0.01,0.29,0.00,23.77,27.32,29.72,4.77,24.42,1020.54,2039.88,3269.90,3199.98,3464.04,349.97,348.02,13.68,0000 0000 0000 0000 000000
2015-07-29 01:18:26,0.04,0.29,0.00,23.77,27.32,29.72,4.79,24.42,1020.54,2039.89,3269.13,3199.82,3464.00,350.32,348.35,13.71,0000 0000 0000 0000 000000
2015-07-29 01:23:27,-0.01,0.29,0.00,23.77,27.32,29.73,4.82,24.48,1020.53,2039.82,3269.01,3199.58,3464.00,349.93,348.25,13.74,0000 0000 0000 0000 000000
2015-07-29 01:28:29,0.02,0.29,0.00,23.79,27.32,29.72,4.71,24.38,1020.53,2039.87,3269.01,3199.49,3463.99,350.23,348.37,13.77,0000 0000 0000 0000 000000
2015-07-29 01:33:30,-0.00,0.29,0.00,23.79,27.32,29.71,4.82,24.45,1020.52,2039.85,3268.99,3199.12,3463.98,350.54,348.41,13.79,0000 0000 0000 0000 000000
2015-07-29 01:38:31,0.01,0.29,0.00,23.80,27.33,29.71,4.73,24.51,1020.54,2039.84,3268.97,3199.03,3463.96,349.62,347.70,13.82,0000 0000 0000 0000 000000
2015-07-29 01:43:33,0.01,0.29,0.00,23.80,27.34,29.74,4.74,24.44,1020.53,2039.91,3268.91,3199.01,3463.89,349.61,347.90,13.85,0000 0000 0000 0000 000000
2015-07-29 01:48:34,-0.01,0.29,0.00,23.80,27.34,29.73,4.73,24.36,1020.53,2039.80,3268.87,3199.00,3463.68,350.40,348.45,13.88,0000 0000 0000 0000 000000
2015-07-29 01:53:35,0.01,0.29,0.00,23.81,27.35,29.74,4.76,24.38,1020.53,2039.89,3268.96,3199.01,3463.86,350.35,348.46,13.91,0000 0000 0000 0000 000000
2015-07-29 01:58:36,0.01,0.29,0.00,23.82,27.35,29.73,4.78,24.41,1020.53,2039.92,3268.88,3199.00,3463.82,349.71,347.60,13.94,0000 0000 0000 0000 000000
2015-07-29 02:03:37,-0.02,0.29,0.00,23.82,27.35,29.73,4.79,24.57,1020.53,2039.77,3268.25,3199.00,3463.34,350.11,348.25,13.97,0000 0000 0000 0000 000000
2015-07-29 02:08:39,0.04,0.29,0.00,23.82,27.35,29.73,4.83,24.49,1020.52,2039.89,3268.35,3199.00,3463.33,350.27,348.23,14.00,0000 0000 0000 0000 000000
2015-07-29 02:13:40,0.00,0.29,0.00,23.82,27.35,29.74,4.72,24.44,1020.52,2039.91,3268.42,3199.00,3463.30,349.52,347.61,14.03,0000 0000 0000 0000 000000
2015-07-29 02:18:41,0.00,0.29,0.00,23.82,27.35,29.74,4.77,24.48,1020.53,2039.90,3268.02,3199.00,3463.03,350.23,348.12,14.06,0000 0000 0000 0000 000000
2015-07-29 02:23:42,-0.01,0.29,0.00,23.83,27.35,29.74,4.76,24.43,1020.52,2039.86,3268.00,3198.98,3463.00,349.69,347.78,14.09,0000 0000 0000 0000 000000
2015-07-29 02:28:44,0.01,0.29,0.00,23.85,27.36,29.74,4.75,24.53,1020.52,2039.88,3268.01,3198.98,3463.01,349.77,347.70,14.12,0000 0000 0000 0000 000000
2015-07-29 02:33:45,0.01,0.29,0.00,23.85,27.36,29.72,4.74,24.42,1020.51,2039.91,3268.00,3198.98,3463.00,349.74,347.83,14.15,0000 0000 0000 0000 000000
2015-07-29 02:38:46,-0.01,0.29,0.00,23.85,27.37,29.75,4.67,24.48,1020.51,2039.84,3268.00,3198.98,3463.00,349.21,347.11,14.18,0000 0000 0000 0000 000000
2015-07-29 02:43:47,0.01,0.29,0.00,23.85,27.37,29.75,4.78,24.48,1020.48,2039.89,3268.00,3198.98,3463.00,349.67,347.55,14.20,0000 0000 0000 0000 000000
2015-07-29 02:48:48,-0.03,0.29,0.00,23.86,27.37,29.73,4.80,24.43,1020.50,2039.81,3268.00,3198.98,3463.00,350.40,348.59,14.23,0000 0000 0000 0000 000000
2015-07-29 02:53:49,0.01,0.29,0.00,23.87,27.37,29.74,4.75,24.41,1020.47,2039.70,3267.99,3198.96,3463.00,350.17,348.20,14.26,0000 0000 0000 0000 000000
2015-07-29 02:58:51,-0.00,0.29,0.00,23.87,27.37,29.75,4.73,24.45,1020.49,2039.72,3267.99,3198.96,3463.00,349.75,347.64,14.29,0000 0000 0000 0000 000000
2015-07-29 03:03:52,-0.04,0.29,0.00,23.87,27.37,29.77,4.71,24.73,1020.47,2039.57,3267.99,3198.96,3463.00,349.47,347.36,14.32,0000 0000 0000 0000 000000
2015-07-29 03:08:53,0.02,0.29,0.00,23.87,27.37,29.76,4.72,24.51,1020.45,2039.53,3267.99,3198.95,3463.00,349.65,347.49,14.35,0000 0000 0000 0000 000000
2015-07-29 03:13:54,0.00,0.29,0.00,23.87,27.39,29.76,4.75,24.57,1020.43,2039.61,3267.99,3198.95,3463.00,349.65,347.61,14.38,0000 0000 0000 0000 000000
2015-07-29 03:18:56,-0.03,0.29,0.00,23.88,27.39,29.77,4.76,24.52,1020.46,2039.50,3267.99,3198.96,3462.99,349.67,347.70,14.41,0000 0000 0000 0000 000000
2015-07-29 03:23:57,0.01,0.29,0.00,23.89,27.40,29.76,4.81,24.43,1020.36,2039.48,3267.99,3198.94,3462.98,350.39,348.33,14.44,0000 0000 0000 0000 000000
2015-07-29 03:28:58,-0.05,0.29,0.00,23.90,27.40,29.78,4.74,24.52,1020.26,2039.23,3267.99,3198.86,3462.98,349.23,347.26,14.47,0000 0000 0000 0000 000000
2015-07-29 03:33:59,0.00,0.29,0.00,23.90,27.40,29.79,4.73,24.44,1020.17,2039.19,3267.98,3198.85,3462.98,350.22,348.07,14.50,0000 0000 0000 0000 000000
2015-07-29 03:39:01,0.01,0.29,0.00,23.90,27.40,29.78,4.76,24.48,1020.13,2039.21,3267.99,3198.87,3462.97,350.09,347.88,14.53,0000 0000 0000 0000 000000
2015-07-29 03:44:02,-0.01,0.29,0.00,23.91,27.40,29.78,4.78,24.51,1020.19,2039.14,3267.99,3198.73,3462.96,349.73,347.45,14.56,0000 0000 0000 0000 000000
2015-07-29 03:49:03,0.01,0.29,0.00,23.91,27.40,29.77,4.75,24.56,1020.12,2039.12,3267.98,3198.40,3462.93,349.59,347.41,14.59,0000 0000 0000 0000 000000
2015-07-29 03:54:04,-0.00,0.29,0.00,23.92,27.42,29.78,4.78,24.47,1020.07,2039.08,3267.95,3198.34,3462.93,350.53,348.32,14.61,0000 0000 0000 0000 000000
2015-07-29 03:59:05,0.01,0.29,0.00,23.93,27.42,29.79,4.71,24.45,1020.06,2039.17,3267.95,3198.41,3462.93,349.72,347.60,14.64,0000 0000 0000 0000 000000
2015-07-29 04:04:07,0.01,0.29,0.00,23.95,27.42,29.79,4.68,24.69,1020.05,2039.05,3267.55,3198.08,3462.77,349.46,347.18,14.67,0000 0000 0000 0000 000000
2015-07-29 04:09:08,-0.00,0.29,0.00,23.96,27.42,29.80,4.79,24.55,1020.05,2039.06,3267.52,3198.05,3462.67,350.10,348.01,14.70,0000 0000 0000 0000 000000
2015-07-29 04:14:09,0.02,0.29,0.00,23.96,27.42,29.79,4.69,24.47,1020.04,2039.07,3267.43,3198.04,3462.36,350.42,348.09,14.73,0000 0000 0000 0000 000000
2015-07-29 04:19:10,0.01,0.29,0.00,23.97,27.43,29.81,4.80,24.54,1020.05,2039.08,3267.11,3198.01,3462.16,350.17,347.75,14.76,0000 0000 0000 0000 000000
2015-07-29 04:24:12,-0.00,0.29,0.00,23.97,27.44,29.81,4.79,24.51,1020.04,2039.05,3267.04,3198.00,3462.04,349.95,347.78,14.79,0000 0000 0000 0000 000000
2015-07-29 04:29:13,-0.00,0.29,0.00,23.97,27.45,29.81,4.81,24.47,1020.04,2039.04,3267.05,3198.01,3462.02,349.98,347.65,14.82,0000 0000 0000 0000 000000
2015-07-29 04:34:14,-0.00,0.29,0.00,23.97,27.45,29.81,4.79,24.55,1020.04,2039.02,3267.02,3198.00,3462.01,350.72,348.52,14.85,0000 0000 0000 0000 000000
2015-07-29 04:39:15,0.01,0.29,0.00,23.99,27.45,29.82,4.72,24.54,1020.04,2039.05,3267.01,3198.00,3462.01,349.93,347.70,14.88,0000 0000 0000 0000 000000
2015-07-29 04:44:16,0.00,0.29,0.00,24.00,27.45,29.82,4.67,24.42,1020.04,2039.06,3267.00,3198.00,3462.01,349.28,347.07,14.91,0000 0000 0000 0000 000000
2015-07-29 04:49:18,-0.01,0.29,0.00,24.00,27.46,29.83,4.76,24.44,1020.04,2039.03,3266.99,3197.99,3462.00,349.87,347.70,14.94,0000 0000 0000 0000 000000
2015-07-29 04:54:19,-0.00,0.29,0.00,24.01,27.47,29.83,4.69,24.36,1020.04,2039.03,3266.99,3197.99,3462.00,350.14,347.77,14.97,0000 0000 0000 0000 000000
2015-07-29 04:59:20,-0.00,0.29,0.00,24.02,27.47,29.84,4.82,24.61,1020.03,2039.01,3266.99,3197.98,3462.00,350.37,348.09,15.00,0000 0000 0000 0000 000000
2015-07-29 05:04:21,0.00,0.29,0.00,24.02,27.47,29.85,4.68,24.68,1020.02,2039.01,3266.96,3197.97,3461.99,349.61,347.35,15.02,0000 0000 0000 0000 000000
2015-07-29 05:09:23,0.00,0.29,0.00,24.02,27.47,29.85,4.79,24.55,1020.03,2039.01,3266.98,3197.96,3461.99,350.55,348.32,15.05,0000 0000 0000 0000 000000
2015-07-29 05:14:24,-0.00,0.29,0.00,24.03,27.48,29.85,4.75,24.45,1020.03,2039.01,3266.97,3197.95,3461.98,349.70,347.31,15.08,0000 0000 0000 0000 000000
2015-07-29 05:19:25,0.00,0.29,0.00,24.05,27.50,29.86,4.76,24.42,1020.03,2039.00,3266.93,3197.90,3461.97,349.87,347.62,15.11,0000 0000 0000 0000 000000
2015-07-29 05:24:26,-0.00,0.29,0.00,24.05,27.50,29.87,4.81,24.51,1020.03,2039.00,3266.95,3197.92,3461.95,349.90,347.37,15.14,0000 0000 0000 0000 000000
2015-07-29 05:29:27,0.01,0.29,0.00,24.05,27.50,29.86,4.71,24.42,1020.03,2039.00,3266.90,3197.82,3461.88,349.89,347.47,15.17,0000 0000 0000 0000 000000
2015-07-29 05:34:29,0.02,0.29,0.00,24.05,27.50,29.87,4.73,24.50,1020.03,2039.00,3266.77,3197.73,3461.82,350.02,347.62,15.20,0000 0000 0000 0000 000000
2015-07-29 05:39:30,0.01,0.29,0.00,24.05,27.50,29.88,4.72,24.47,1020.03,2039.00,3266.63,3197.51,3461.47,349.93,347.50,15.23,0000 0000 0000 0000 000000
2015-07-29 05:44:31,-0.00,0.29,0.00,24.06,27.52,29.88,4.73,24.52,1020.03,2039.00,3266.67,3197.58,3461.50,349.48,347.12,15.26,0000 0000 0000 0000 000000
2015-07-29 05:49:32,0.01,0.29,0.00,24.06,27.52,29.89,4.76,24.46,1020.03,2039.00,3266.61,3197.53,3461.54,350.16,347.71,15.29,0000 0000 0000 0000 000000
2015-07-29 05:54:33,0.01,0.29,0.00,24.06,27.52,29.90,4.75,24.43,1020.03,2039.00,3266.48,3197.50,3461.35,350.09,347.70,15.32,0000 0000 0000 0000 000000
2015-07-29 05:59:35,0.02,0.29,0.00,24.07,27.52,29.90,4.73,24.48,1020.03,2038.99,3266.16,3197.27,3461.18,349.88,347.46,15.35,0000 0000 0000 0000 000000
2015-07-29 06:04:36,0.01,0.29,0.00,24.07,27.53,29.92,4.75,24.64,1020.03,2038.98,3266.02,3197.04,3461.02,350.39,347.77,15.38,0000 0000 0000 0000 000000
2015-07-29 06:09:37,0.00,0.29,0.00,24.08,27.54,29.91,4.77,24.38,1020.03,2038.99,3266.01,3197.03,3461.02,349.97,347.45,15.40,0000 0000 0000 0000 000000
2015-07-29 06:14:38,-0.00,0.29,0.00,24.09,27.55,29.91,4.72,24.36,1020.03,2038.98,3266.02,3197.03,3461.01,349.79,347.43,15.43,0000 0000 0000 0000 000000
2015-07-29 06:19:40,-0.01,0.29,0.00,24.10,27.55,29.91,4.77,24.48,1020.03,2038.98,3266.01,3197.03,3461.00,350.27,347.75,15.46,0000 0000 0000 0000 000000
2015-07-29 06:24:41,0.00,0.29,0.00,24.10,27.55,29.93,4.72,24.42,1020.03,2038.99,3266.00,3197.01,3461.00,350.19,347.68,15.49,0000 0000 0000 0000 000000
2015-07-29 06:29:42,0.00,0.29,0.00,24.10,27.55,29.94,4.69,24.41,1020.02,2038.99,3266.00,3197.00,3461.00,350.00,347.52,15.52,0000 0000 0000 0000 000000
2015-07-29 06:34:43,0.00,0.29,0.00,24.11,27.57,29.93,4.77,24.39,1020.03,2038.98,3266.00,3197.00,3461.00,349.76,347.42,15.55,0000 0000 0000 0000 000000
2015-07-29 06:39:45,-0.00,0.29,0.00,24.12,27.57,29.94,4.72,24.48,1020.03,2038.97,3265.99,3197.00,3460.99,349.76,347.26,15.58,0000 0000 0000 0000 000000
2015-07-29 06:44:46,-0.00,0.29,0.00,24.11,27.57,29.94,4.75,24.48,1020.03,2038.95,3265.98,3197.00,3460.98,350.24,347.74,15.61,0000 0000 0000 0000 000000
2015-07-29 06:49:48,-0.01,0.29,0.00,24.10,27.57,29.95,4.73,24.53,1020.03,2038.90,3265.95,3196.99,3460.96,349.92,347.50,15.64,0000 0000 0000 0000 000000
2015-07-29 06:54:49,0.01,0.29,0.00,24.11,27.57,29.96,4.79,24.49,1020.03,2038.90,3265.83,3196.98,3460.86,349.96,347.58,15.67,0000 0000 0000 0000 000000
2015-07-29 06:59:50,0.01,0.29,0.00,24.12,27.59,29.96,4.73,24.45,1020.02,2038.91,3265.52,3196.97,3460.80,350.18,347.75,15.70,0000 0000 0000 0000 000000
2015-07-29 07:04:51,0.03,0.29,0.00,24.12,27.60,29.96,4.67,24.64,1020.02,2038.87,3265.10,3196.88,3460.42,349.52,347.06,15.73,0000 0000 0000 0000 000000
2015-07-29 07:09:53,0.00,0.29,0.00,24.12,27.60,29.97,4.75,24.39,1020.03,2038.85,3265.03,3196.86,3460.18,349.91,347.26,15.76,0000 0000 0000 0000 000000
2015-07-29 07:14:54,0.00,0.29,0.00,24.14,27.60,29.98,4.73,24.37,1020.03,2038.92,3265.00,3196.83,3460.15,349.70,347.22,15.79,0000 0000 0000 0000 000000
2015-07-29 07:19:55,-0.01,0.29,0.00,24.15,27.60,29.97,4.75,24.46,1020.03,2038.65,3264.99,3196.14,3460.01,349.75,347.21,15.81,0000 0000 0000 0000 000000
2015-07-29 07:24:57,-0.04,0.29,0.00,24.14,27.60,29.98,4.74,24.33,1020.04,2038.40,3264.91,3196.01,3460.00,349.86,347.42,15.84,0000 0000 0000 0000 000000
2015-07-29 07:29:58,0.02,0.29,0.00,24.13,27.62,29.98,4.76,24.30,1020.04,2038.46,3264.46,3196.00,3459.98,350.25,347.73,15.87,0000 0000 0000 0000 000000
2015-07-29 07:34:59,0.01,0.29,0.00,24.13,27.62,29.99,4.75,24.42,1020.04,2038.41,3264.17,3196.00,3459.96,349.84,347.25,15.90,0000 0000 0000 0000 000000
2015-07-29 07:40:00,0.01,0.29,0.00,24.14,27.62,29.99,4.76,24.35,1020.03,2038.49,3264.21,3196.00,3459.97,350.14,347.40,15.93,0000 0000 0000 0000 000000
2015-07-29 07:45:01,-0.01,0.29,0.00,24.14,27.62,29.99,4.79,24.41,1020.03,2038.36,3264.14,3196.00,3459.97,350.17,347.62,15.96,0000 0000 0000 0000 000000
2015-07-29 07:50:03,-0.02,0.29,0.00,24.14,27.62,30.00,4.85,24.30,1020.03,2038.26,3264.03,3196.00,3459.89,350.22,347.64,15.99,0000 0000 0000 0000 000000
2015-07-29 07:55:04,0.02,0.29,0.00,24.14,27.62,30.00,4.73,24.37,1020.03,2038.12,3263.98,3195.80,3459.27,349.98,347.53,16.02,0000 0000 0000 0000 000000
2015-07-29 08:00:05,0.03,0.29,0.00,24.15,27.63,30.00,4.74,24.47,1020.02,2038.15,3263.87,3195.28,3459.00,349.51,347.02,16.05,0000 0000 0000 0000 000000
2015-07-29 08:05:06,-0.01,0.29,0.00,24.15,27.64,30.00,4.75,24.63,1020.03,2038.07,3263.56,3195.15,3459.00,349.52,347.03,16.08,0000 0000 0000 0000 000000
2015-07-29 08:10:07,-0.00,0.29,0.00,24.15,27.65,30.01,4.69,24.39,1020.02,2038.07,3263.66,3195.12,3459.00,349.74,347.27,16.11,0000 0000 0000 0000 000000
2015-07-29 08:15:09,-0.00,0.29,0.00,24.15,27.65,30.00,4.71,24.46,1020.01,2038.04,3263.61,3195.10,3459.00,350.00,347.49,16.14,0000 0000 0000 0000 000000
2015-07-29 08:20:10,0.01,0.29,0.00,24.15,27.65,30.02,4.71,24.48,1020.02,2038.05,3263.49,3195.08,3458.99,349.51,346.91,16.17,0000 0000 0000 0000 000000
2015-07-29 08:25:11,0.00,0.29,0.00,24.13,27.65,30.02,4.74,24.41,1020.03,2038.06,3263.29,3195.07,3458.99,349.87,347.30,16.20,0000 0000 0000 0000 000000
2015-07-29 08:30:12,0.01,0.29,0.00,24.14,27.65,30.01,4.73,24.38,1020.03,2038.08,3263.15,3195.03,3458.99,349.90,347.38,16.22,0000 0000 0000 0000 000000
2015-07-29 08:35:14,0.01,0.29,0.00,24.15,27.65,30.02,4.76,24.40,1020.02,2038.08,3263.09,3195.03,3458.99,350.05,347.43,16.25,0000 0000 0000 0000 000000
2015-07-29 08:40:15,0.00,0.29,0.00,24.15,27.65,30.02,4.72,24.46,1020.03,2038.12,3263.19,3195.06,3458.99,349.75,347.26,16.28,0000 0000 0000 0000 000000
2015-07-29 08:45:16,-0.00,0.29,0.00,24.14,27.65,30.02,4.77,24.46,1020.03,2038.06,3263.07,3195.05,3458.98,349.88,347.54,16.31,0000 0000 0000 0000 000000
2015-07-29 08:50:18,0.00,0.29,0.00,24.15,27.65,30.02,4.78,24.47,1020.03,2038.08,3263.04,3195.01,3458.98,349.86,347.57,16.34,0000 0000 0000 0000 000000
2015-07-29 08:55:19,-0.00,0.29,0.00,24.15,27.66,30.03,4.76,24.43,1020.03,2038.07,3263.02,3195.01,3458.97,350.05,347.50,16.37,0000 0000 0000 0000 000000
2015-07-29 09:00:20,-0.00,0.29,0.00,24.15,27.67,30.04,4.68,24.35,1020.01,2038.03,3263.01,3195.00,3458.96,349.37,346.87,16.40,0000 0000 0000 0000 000000
2015-07-29 09:05:21,0.00,0.29,0.00,24.14,27.67,30.03,4.74,24.51,1019.99,2038.02,3263.00,3195.00,3458.89,349.56,347.08,16.43,0000 0000 0000 0000 000000
2015-07-29 09:10:23,0.00,0.29,0.00,24.14,27.67,30.04,4.76,24.46,1020.00,2038.04,3263.00,3195.00,3458.94,350.12,347.98,16.46,0000 0000 0000 0000 000000
2015-07-29 09:15:24,0.01,0.29,0.00,24.13,27.67,30.03,4.72,24.40,1020.03,2038.05,3263.00,3195.00,3458.83,349.57,347.10,16.49,0000 0000 0000 0000 000000
2015-07-29 09:20:25,0.00,0.29,0.00,24.15,27.67,30.04,4.76,24.50,1020.03,2038.06,3262.99,3195.00,3458.62,349.42,346.84,16.52,0000 0000 0000 0000 000000
2015-07-29 09:25:26,-0.00,0.29,0.00,24.14,27.67,30.04,4.74,24.30,1019.99,2038.04,3262.99,3195.00,3458.67,350.14,347.72,16.55,0000 0000 0000 0000 000000
2015-07-29 09:30:28,0.01,0.29,0.00,24.13,27.67,30.04,4.71,24.27,1019.89,2038.03,3262.99,3195.00,3458.37,349.92,347.28,16.58,0000 0000 0000 0000 000000
2015-07-29 09:35:29,0.00,0.29,0.00,24.13,27.67,30.05,4.78,24.40,1019.90,2038.03,3262.99,3195.00,3458.31,350.18,347.66,16.61,0000 0000 0000 0000 000000
2015-07-29 09:40:30,-0.00,0.29,0.00,24.12,27.67,30.04,4.77,24.36,1019.93,2038.01,3262.98,3195.00,3458.10,350.14,347.74,16.64,0000 0000 0000 0000 000000
2015-07-29 09:45:32,0.00,0.29,0.00,24.12,27.67,30.04,4.72,24.25,1020.00,2038.02,3262.97,3194.98,3458.03,349.91,347.55,16.66,0000 0000 0000 0000 000000
2015-07-29 09:50:33,0.00,0.29,0.00,24.12,27.67,30.04,4.77,24.42,1020.03,2038.01,3262.98,3194.99,3458.07,349.79,347.02,16.69,0000 0000 0000 0000 000000
2015-07-29 09:55:34,0.00,0.29,0.00,24.12,27.67,30.06,4.74,24.38,1020.03,2038.04,3262.98,3194.99,3458.11,349.92,347.60,16.72,0000 0000 0000 0000 000000
2015-07-29 10:00:35,0.00,0.29,0.00,24.12,27.67,30.05,4.70,24.44,1020.03,2038.03,3262.96,3194.98,3458.06,349.55,347.32,16.75,0000 0000 0000 0000 000000
2015-07-29 10:05:37,0.01,0.29,0.00,24.12,27.67,30.05,4.80,24.52,1020.03,2038.01,3262.42,3194.94,3458.01,350.40,347.73,16.78,0000 0000 0000 0000 000000
2015-07-29 10:10:38,-0.01,0.29,0.00,24.15,27.67,30.03,4.76,24.43,1020.04,2038.03,3262.76,3194.98,3458.02,349.42,346.79,16.81,0000 0000 0000 0000 000000
2015-07-29 10:15:39,-0.00,0.29,0.00,24.15,27.67,30.03,4.70,24.37,1020.04,2038.01,3262.83,3194.98,3458.01,349.41,346.94,16.84,0000 0000 0000 0000 000000
2015-07-29 10:20:40,0.00,0.29,0.00,24.14,27.68,30.04,4.78,24.38,1020.04,2038.02,3262.60,3194.98,3458.01,350.37,347.87,16.87,0000 0000 0000 0000 000000
2015-07-29 10:25:41,0.01,0.29,0.00,24.13,27.68,30.05,4.74,24.32,1020.03,2038.01,3262.30,3194.97,3458.00,350.25,347.63,16.90,0000 0000 0000 0000 000000
2015-07-29 10:30:43,0.01,0.29,0.00,24.12,27.69,30.05,4.73,24.37,1020.03,2038.02,3262.25,3194.94,3458.00,349.98,347.50,16.93,0000 0000 0000 0000 000000
2015-07-29 10:35:44,0.00,0.29,0.00,24.12,27.69,30.05,4.75,24.45,1020.03,2038.01,3262.07,3194.90,3458.00,349.43,346.97,16.96,0000 0000 0000 0000 000000
2015-07-29 10:40:45,0.01,0.30,0.00,24.12,27.69,30.06,4.69,24.48,1020.03,2038.01,3262.03,3194.77,3458.00,349.63,347.07,16.99,0000 0000 0000 0000 000000
2015-07-29 10:45:47,-0.00,0.30,0.00,24.13,27.69,30.05,4.72,24.31,1020.02,2038.01,3262.03,3194.86,3458.00,349.97,347.20,17.02,0000 0000 0000 0000 000000
2015-07-29 10:50:48,0.00,0.30,0.00,24.12,27.69,30.06,4.80,24.48,1020.03,2038.02,3262.02,3194.88,3458.00,349.95,347.41,17.04,0000 0000 0000 0000 000000
2015-07-29 10:55:49,0.00,0.30,0.00,24.12,27.69,30.06,4.74,24.43,1020.03,2038.04,3262.01,3194.91,3457.99,349.67,347.23,17.07,0000 0000 0000 0000 000000
2015-07-29 11:00:50,0.00,0.30,0.00,24.13,27.70,30.05,4.72,24.43,1020.03,2038.03,3262.00,3194.91,3457.99,349.81,347.52,17.10,0000 0000 0000 0000 000000
2015-07-29 11:05:52,0.01,0.30,0.00,24.12,27.70,30.05,4.71,24.52,1020.02,2038.03,3262.00,3194.75,3457.97,349.20,346.72,17.13,0000 0000 0000 0000 000000
2015-07-29 11:10:53,0.00,0.30,0.00,24.12,27.70,30.07,4.76,24.41,1020.02,2038.03,3261.99,3194.82,3457.96,350.07,347.70,17.16,0000 0000 0000 0000 000000
2015-07-29 11:15:54,0.00,0.30,0.00,24.12,27.70,30.05,4.81,24.38,1019.98,2038.03,3261.98,3194.70,3457.92,350.27,347.80,17.19,0000 0000 0000 0000 000000
2015-07-29 11:20:55,0.02,0.30,0.00,24.12,27.70,30.06,4.78,24.44,1019.95,2038.03,3261.94,3194.55,3457.78,350.27,347.96,17.22,0000 0000 0000 0000 000000
2015-07-29 11:25:57,0.01,0.30,0.00,24.12,27.70,30.04,4.77,24.47,1019.88,2038.03,3261.77,3194.60,3457.57,350.34,347.85,17.25,0000 0000 0000 0000 000000
2015-07-29 11:30:58,0.03,0.30,0.00,24.12,27.70,30.06,4.75,24.43,1019.84,2038.04,3261.26,3194.29,3457.11,350.01,347.00,17.28,0000 0000 0000 0000 000000
2015-07-29 11:35:59,-0.00,0.30,0.00,24.12,27.70,30.05,4.73,24.46,1019.87,2038.03,3261.05,3194.27,3457.03,349.59,347.13,17.31,0000 0000 0000 0000 000000
2015-07-29 11:41:00,0.01,0.30,0.00,24.12,27.70,30.05,4.80,24.45,1019.84,2038.02,3261.01,3194.14,3457.01,350.44,347.78,17.34,0000 0000 0000 0000 000000
2015-07-29 11:46:01,-0.00,0.30,0.00,24.12,27.70,30.06,4.75,24.41,1019.73,2038.02,3261.00,3194.18,3457.00,349.89,347.46,17.37,0000 0000 0000 0000 000000
2015-07-29 11:51:03,-0.00,0.30,0.00,24.10,27.70,30.04,4.74,24.39,1019.81,2038.04,3261.00,3194.23,3457.00,349.77,347.28,17.40,0000 0000 0000 0000 000000
2015-07-29 11:56:04,0.00,0.30,0.00,24.10,27.70,30.05,4.71,24.49,1019.85,2038.04,3260.98,3194.20,3457.00,349.66,347.23,17.43,0000 0000 0000 0000 000000
2015-07-29 12:01:05,0.00,0.30,0.00,24.10,27.69,30.05,4.73,24.57,1019.86,2038.01,3260.86,3194.11,3456.96,350.00,347.51,17.45,0000 0000 0000 0000 000000
2015-07-29 12:06:07,0.01,0.30,0.00,24.11,27.69,30.06,4.70,24.49,1019.82,2038.01,3260.46,3194.05,3456.83,349.82,347.55,17.48,0000 0000 0000 0000 000000
2015-07-29 12:11:08,0.02,0.30,0.00,24.12,27.69,30.07,4.76,24.32,1019.69,2038.02,3260.23,3194.04,3456.64,350.28,347.88,17.51,0000 0000 0000 0000 000000
2015-07-29 12:16:09,0.00,0.30,0.00,24.12,27.69,30.06,4.77,24.39,1019.62,2038.02,3260.06,3194.10,3456.37,350.03,347.39,17.54,0000 0000 0000 0000 000000
2015-07-29 12:21:11,0.01,0.30,0.00,24.10,27.69,30.06,4.73,24.45,1019.60,2038.02,3260.01,3194.07,3456.07,349.65,347.02,17.57,0000 0000 0000 0000 000000
2015-07-29 12:26:12,0.00,0.30,0.00,24.10,27.69,30.08,4.72,24.46,1019.57,2038.03,3260.00,3194.04,3456.03,349.82,347.30,17.60,0000 0000 0000 0000 000000
2015-07-29 12:31:13,0.00,0.30,0.00,24.09,27.68,30.05,4.80,24.43,1019.56,2038.04,3259.99,3194.02,3456.00,350.54,347.79,17.63,0000 0000 0000 0000 000000
2015-07-29 12:36:14,0.00,0.30,0.00,24.09,27.68,30.06,4.74,24.48,1019.55,2038.05,3259.83,3194.02,3456.00,349.65,347.08,17.66,0000 0000 0000 0000 000000
2015-07-29 12:41:16,0.01,0.30,0.00,24.07,27.67,30.07,4.71,24.45,1019.55,2038.05,3259.32,3194.03,3455.99,349.79,347.23,17.69,0000 0000 0000 0000 000000
2015-07-29 12:46:17,0.01,0.30,0.00,24.07,27.67,30.07,4.74,24.62,1019.55,2038.03,3259.05,3194.01,3455.80,349.29,346.78,17.72,0000 0000 0000 0000 000000
2015-07-29 12:51:18,0.01,0.30,0.00,24.09,27.67,30.05,4.78,24.52,1019.55,2038.03,3259.00,3194.00,3455.40,350.39,347.66,17.75,0000 0000 0000 0000 000000
2015-07-29 12:56:19,0.01,0.30,0.00,24.09,27.67,30.04,4.77,24.41,1019.55,2038.05,3258.93,3194.00,3455.03,350.08,347.31,17.78,0000 0000 0000 0000 000000
2015-07-29 13:01:21,0.01,0.30,0.00,24.08,27.67,30.06,4.68,24.60,1019.55,2038.04,3258.42,3194.00,3455.01,349.72,346.98,17.81,0000 0000 0000 0000 000000